Darstellungsparameter: Aktuell verwendete Einstellungen:
Skalierung der Graphiken ... ?
xyx+y,   Skalierungsfaktor:      Skalierung: Modus: x, Faktor: 1
Darstellungszeitraum ... ?
Vom - - bis: - -   Zeitraum: 26.10.2020 - 26.10.2020
Min/Max/Avg-Anzeige ... ?
Zeige MMA aktuell
Zeige MMA Monat
Zeige MMA alles
Zeige --A aktuell
Zeige --A Monat
Zeige --A alles
Keine MMA-Anzeige
MMA:
Keine MMA-Graphiken
MMA-Basis: 26.10.2020 - 26.10.2020
Quicknavigation für Darstellung... ?
Tage:      1T, 2T, 3T, 5T -1T -2T -3T -5T +1T +2T +3T +5T
Wochen: 1W, 2W, 3W -1W -2W -3W +1W +2W +3W
Monate: 1M, 3M, 6M -1M -3M -6M +1M +3M +6M
Jahre:    1J, 3J, 5J, 10J -1J -3J -5J -10J +1J +3J +5J +10J
Nutze für die Darstellung ... ?
Originaldaten oder Mittelwerte auf ...
Stundenbasis Tagesbasis Wochenbasis
Monatsbasis Jahresbasis      Datenbasis: Original-Daten
Darstellen als:
Statistik (Auto) Statistik J:M      Darstellung:

Der gewünschte Datumsbereich war nicht gültig/verfügbar und wurde korrigiert....
Das angegebene Enddatum (04.06.2024 23:59:59) liegt in der Zukunft.
Das angegebene Startdatum (29.05.2024 00:00:00) liegt in der Zukunft.


Zur Graphik,    zurück zur Übersicht aller Sensoren.
 
Tabellarische Datenbersicht: ?
 
Sensor: Nr:Datum:Temp:Abs-Feuchte:Windchill:Wind:
Aussen-T/F 1 26-10-2020 01:00:00 10.7 C 9.43 g/m*3 10.7 C 0 km/h
2 26-10-2020 01:05:00 10.7 C 9.43 g/m*3 10.7 C 0 km/h
3 26-10-2020 01:10:00 10.7 C 9.43 g/m*3 10.7 C 0 km/h
4 26-10-2020 01:15:00 10.7 C 9.43 g/m*3 10.7 C 0 km/h
5 26-10-2020 01:20:00 10.7 C 9.43 g/m*3 10.7 C 0 km/h
6 26-10-2020 01:25:00 10.7 C 9.43 g/m*3 10.7 C 0 km/h
7 26-10-2020 01:30:00 10.7 C 9.43 g/m*3 10.7 C 0 km/h
8 26-10-2020 01:35:00 10.7 C 9.43 g/m*3 10.7 C 1.6 km/h
9 26-10-2020 01:40:00 10.6 C 9.37 g/m*3 10.6 C 0 km/h
10 26-10-2020 01:45:00 10.6 C 9.37 g/m*3 10.6 C 0 km/h
11 26-10-2020 01:50:00 10.6 C 9.37 g/m*3 10.6 C 0 km/h
12 26-10-2020 01:55:00 10.6 C 9.37 g/m*3 10.6 C 1.6 km/h
13 26-10-2020 02:00:00 10.6 C 9.37 g/m*3 10.6 C 0 km/h
14 26-10-2020 02:05:00 10.7 C 9.43 g/m*3 10.7 C 0 km/h
15 26-10-2020 02:10:00 10.7 C 9.43 g/m*3 10.7 C 1.6 km/h
16 26-10-2020 02:15:00 10.7 C 9.43 g/m*3 10.7 C 4.8 km/h
17 26-10-2020 02:20:00 10.7 C 9.33 g/m*3 10.7 C 3.2 km/h
18 26-10-2020 02:25:00 10.7 C 9.33 g/m*3 10.7 C 1.6 km/h
19 26-10-2020 02:30:00 10.7 C 9.33 g/m*3 10.7 C 0 km/h
20 26-10-2020 02:35:00 10.7 C 9.33 g/m*3 10.7 C 0 km/h
21 26-10-2020 02:40:00 10.6 C 9.27 g/m*3 10.6 C 3.2 km/h
22 26-10-2020 02:45:00 10.6 C 9.27 g/m*3 10.6 C 0 km/h
23 26-10-2020 02:50:00 10.6 C 9.27 g/m*3 10.6 C 0 km/h
24 26-10-2020 02:55:00 10.6 C 9.27 g/m*3 10.6 C 1.6 km/h
25 26-10-2020 03:00:00 10.6 C 9.27 g/m*3 10.6 C 0 km/h
Sensor: Nr:Datum:Temp:Abs-Feuchte:Windchill:Wind:
Aussen-T/F 26 26-10-2020 03:05:00 10.6 C 9.27 g/m*3 10.6 C 0 km/h
27 26-10-2020 03:10:00 10.6 C 9.27 g/m*3 10.6 C 1.6 km/h
28 26-10-2020 03:15:00 10.6 C 9.27 g/m*3 10.6 C 1.6 km/h
29 26-10-2020 03:20:00 10.6 C 9.27 g/m*3 10.6 C 0 km/h
30 26-10-2020 03:25:00 10.7 C 9.33 g/m*3 10.7 C 3.2 km/h
31 26-10-2020 03:30:00 10.7 C 9.33 g/m*3 10.7 C 3.2 km/h
32 26-10-2020 03:35:00 10.7 C 9.33 g/m*3 10.7 C 0 km/h
33 26-10-2020 03:40:00 10.7 C 9.33 g/m*3 10.7 C 0 km/h
34 26-10-2020 03:45:00 10.7 C 9.33 g/m*3 10.7 C 0 km/h
35 26-10-2020 03:50:00 10.7 C 9.33 g/m*3 10.7 C 0 km/h
36 26-10-2020 03:55:00 10.7 C 9.33 g/m*3 10.7 C 0 km/h
37 26-10-2020 04:00:00 10.7 C 9.33 g/m*3 10.7 C 0 km/h
38 26-10-2020 04:05:00 10.6 C 9.27 g/m*3 10.6 C 0 km/h
39 26-10-2020 04:10:00 10.6 C 9.27 g/m*3 10.6 C 0 km/h
40 26-10-2020 04:15:00 10.6 C 9.27 g/m*3 10.6 C 0 km/h
41 26-10-2020 04:20:00 10.6 C 9.27 g/m*3 10.6 C 0 km/h
42 26-10-2020 04:25:00 10.6 C 9.37 g/m*3 10.6 C 0 km/h
43 26-10-2020 04:30:00 10.6 C 9.37 g/m*3 10.6 C 0 km/h
44 26-10-2020 04:35:00 10.6 C 9.37 g/m*3 10.6 C 0 km/h
45 26-10-2020 04:40:00 10.6 C 9.37 g/m*3 10.6 C 1.6 km/h
46 26-10-2020 04:45:00 10.7 C 9.43 g/m*3 10.7 C 1.6 km/h
47 26-10-2020 04:50:00 10.7 C 9.43 g/m*3 10.7 C 0 km/h
48 26-10-2020 04:55:00 10.7 C 9.43 g/m*3 10.7 C 0 km/h
49 26-10-2020 05:00:00 10.7 C 9.43 g/m*3 10.7 C 0 km/h
50 26-10-2020 05:05:00 10.7 C 9.43 g/m*3 10.7 C 0 km/h
Sensor: Nr:Datum:Temp:Abs-Feuchte:Windchill:Wind:
Aussen-T/F 51 26-10-2020 05:10:00 10.7 C 9.43 g/m*3 10.7 C 0 km/h
52 26-10-2020 05:15:00 10.7 C 9.43 g/m*3 10.7 C 0 km/h
53 26-10-2020 05:20:00 10.7 C 9.43 g/m*3 10.7 C 0 km/h
54 26-10-2020 05:25:00 10.7 C 9.43 g/m*3 10.7 C 0 km/h
55 26-10-2020 05:30:00 10.7 C 9.43 g/m*3 10.7 C 0 km/h
56 26-10-2020 05:35:00 10.7 C 9.43 g/m*3 10.7 C 3.2 km/h
57 26-10-2020 05:40:00 10.7 C 9.43 g/m*3 10.7 C 1.6 km/h
58 26-10-2020 05:45:00 10.6 C 9.37 g/m*3 10.6 C 0 km/h
59 26-10-2020 05:50:00 10.6 C 9.37 g/m*3 10.6 C 1.6 km/h
60 26-10-2020 05:55:00 10.6 C 9.37 g/m*3 10.6 C 0 km/h
61 26-10-2020 06:00:00 10.6 C 9.37 g/m*3 10.6 C 3.2 km/h
62 26-10-2020 06:05:00 10.5 C 9.31 g/m*3 10.5 C 0 km/h
63 26-10-2020 06:10:00 10.5 C 9.31 g/m*3 10.5 C 1.6 km/h
64 26-10-2020 06:15:00 10.5 C 9.31 g/m*3 10.5 C 0 km/h
65 26-10-2020 06:20:00 10.4 C 9.25 g/m*3 10.4 C 0 km/h
66 26-10-2020 06:25:00 10.4 C 9.25 g/m*3 10.4 C 0 km/h
67 26-10-2020 06:30:00 10.4 C 9.25 g/m*3 10.4 C 0 km/h
68 26-10-2020 06:35:00 10.4 C 9.25 g/m*3 10.4 C 0 km/h
69 26-10-2020 06:40:00 10.4 C 9.25 g/m*3 10.4 C 0 km/h
70 26-10-2020 06:45:00 10.3 C 9.19 g/m*3 10.3 C 0 km/h
71 26-10-2020 06:50:00 10.3 C 9.19 g/m*3 10.3 C 4.8 km/h
72 26-10-2020 06:55:00 10.3 C 9.19 g/m*3 10.3 C 1.6 km/h
73 26-10-2020 07:00:00 10.3 C 9.19 g/m*3 10.3 C 1.6 km/h
74 26-10-2020 07:05:00 10.2 C 9.14 g/m*3 10.2 C 4.8 km/h
75 26-10-2020 07:10:00 10.2 C 9.14 g/m*3 10.2 C 0 km/h
Sensor: Nr:Datum:Temp:Abs-Feuchte:Windchill:Wind:
Aussen-T/F 76 26-10-2020 07:15:00 10.1 C 9.08 g/m*3 10.1 C 3.2 km/h
77 26-10-2020 07:20:00 10 C 9.02 g/m*3 9.37 C 6.4 km/h
78 26-10-2020 07:25:00 9.9 C 8.96 g/m*3 9.9 C 3.2 km/h
79 26-10-2020 07:30:00 9.9 C 8.96 g/m*3 9.9 C 1.6 km/h
80 26-10-2020 07:35:00 9.9 C 8.96 g/m*3 9.25 C 6.4 km/h
81 26-10-2020 07:40:00 9.9 C 8.96 g/m*3 9.25 C 6.4 km/h
82 26-10-2020 07:45:00 9.9 C 8.96 g/m*3 9.9 C 4.8 km/h
83 26-10-2020 07:50:00 9.8 C 8.91 g/m*3 8.75 C 8.1 km/h
84 26-10-2020 07:55:00 9.8 C 8.91 g/m*3 8.75 C 8.1 km/h
85 26-10-2020 08:00:00 9.8 C 8.91 g/m*3 8.75 C 8.1 km/h

Legende:
   Min
   Max


Maximal/Minimal-Werte vom 26.10.2020 - 26.10.2020

Sensor Min Max Avg
Temp
(Aussen-T/F)
9.8 °C
26-10-2020  07:50:00
10.7 °C
26-10-2020  01:00:00
10.52 °C
Abs-Feuchte
(Aussen-T/F)
8.91 g/m*3
26-10-2020  07:50:00
9.43 g/m*3
26-10-2020  01:00:00
9.19 g/m*3
Windchill
(Aussen-T/F)
8.75 C
26-10-2020  07:50:00
10.7 C
26-10-2020  01:00:00
10.34 C

Die Daten stammen von einer Davis Vantage Pro 2 Wetter-Station und werden unter Linux mit der Software wview2wettercgi und aufbereitet. Alle Angaben erfolgen ohne Gewähr für ihre Vollständigkeit oder Richtigkeit.
Kontakt: Rainer Krienke krienke@uni-koblenz.de . Meine Webseiten an der Uni Koblenz oder privat.
Version: $Revision: 0.78 $